Flag for Denmark Weather past 2 weeks in Odense, Denmark

48 °F

Partly cloudy.

Feels Like: 42 °F
Forecast: 47 / 52 °F
Wind: 17 mph from Northeast

Location: Soenderborg Lufthavn

Current Time: Oct 13, 2015 at 9:20:48 PM

Latest Report: Oct 13, 2015 at 8:50 PM

Visibility: N/A

Pressure: 30.18 "Hg

Humidity: 82%

Dew point: 43 °F

Location of OdenseLocation

Historic Weather in Odense — Graph


Odense temperature yesterday

Maximum temperature yesterday: 50 °F (at 10:50 AM)
Minimum temperature yesterday: 45 °F (at 10:20 PM)
Average temperature yesterday: 47 °F

Past Weeks' High & Low Weather Summary

High66 °F (Oct 2, 1:50 PM)100% (Sep 29, 6:50 AM)30.72 "Hg (Sep 29, 6:50 AM)
Low45 °F (Oct 12, 10:20 PM)46% (Oct 2, 2:50 PM)29.74 "Hg (Oct 6, 4:20 PM)
Average53 °F85%30.14 "Hg
* Reported Sep 28 8:51 PM — Oct 13 8:20 PM, Odense, Weather by CustomWeather, © 2015

Note: Actual official high and low records may vary slightly from our data, if they occured in-between our weather recording intervals... More about our weather records


Odense weather history for previous 24 hours

Time TempWeatherWind HumidityBarometerVisibility
8:20 PM
Tue, Oct 13
46 °FPartly cloudy.14 mph87%30.18 "HgN/A
7:50 PM48 °FPassing clouds.16 mph82%30.18 "HgN/A
7:20 PM48 °FScattered clouds.16 mph82%30.18 "HgN/A
6:50 PM48 °FBroken clouds.16 mph82%30.18 "HgN/A
6:20 PM48 °FBroken clouds.15 mph82%30.15 "HgN/A
5:22 PM48 °FBroken clouds.17 mph82%30.15 "HgN/A
4:51 PM48 °FBroken clouds.17 mph82%30.15 "HgN/A
4:20 PM48 °FPartly sunny.16 mph82%30.18 "HgN/A
3:50 PM48 °FPartly sunny.17 mph82%30.18 "HgN/A
3:20 PM48 °FPartly sunny.16 mph76%30.18 "HgN/A
2:50 PM48 °FPartly sunny.14 mph76%30.18 "HgN/A
2:23 PM48 °FBroken clouds.14 mph76%30.18 "HgN/A
1:50 PM48 °FBroken clouds.14 mph76%30.21 "HgN/A
1:06 PM48 °FPartly sunny.15 mph76%30.21 "HgN/A
12:20 PM48 °FPartly sunny.15 mph76%30.21 "HgN/A
12:09 PM48 °FPartly sunny.13 mph82%30.21 "HgN/A
11:20 AM48 °FPartly sunny.15 mph76%30.21 "HgN/A
10:50 AM46 °FPartly sunny.13 mph82%30.21 "HgN/A
10:20 AM46 °FPartly sunny.12 mph82%30.21 "HgN/A
9:50 AM46 °FPartly sunny.13 mph82%30.21 "HgN/A
8:50 AM46 °FPartly sunny.15 mph82%30.21 "HgN/A
8:22 AM46 °FPartly cloudy.16 mph82%30.21 "HgN/A
7:50 AM46 °FClear.10 mph76%30.21 "Hg10 mi
7:20 AM46 °FClear.10 mph76%30.21 "Hg10 mi
6:50 AM45 °FPassing clouds.9 mph76%30.21 "Hg10 mi
6:20 AM46 °FPassing clouds.8 mph71%30.21 "HgN/A
5:20 AM45 °FPassing clouds.7 mph76%30.21 "HgN/A
4:50 AM45 °FPassing clouds.6 mph76%30.21 "HgN/A
4:20 AM45 °FQuite cool.8 mph76%30.21 "HgN/A
3:50 AM46 °FCool.10 mph71%30.21 "HgN/A
3:20 AM46 °FPassing clouds.13 mph62%30.21 "HgN/A
2:50 AM45 °FPassing clouds.10 mph66%30.21 "HgN/A
2:20 AM46 °FPassing clouds.12 mph62%30.24 "HgN/A
1:50 AM46 °FPassing clouds.13 mph62%30.24 "HgN/A
1:20 AM46 °FPassing clouds.13 mph62%30.21 "HgN/A
12:50 AM46 °FPassing clouds.13 mph66%30.24 "HgN/A
12:20 AM46 °FPassing clouds.13 mph66%30.24 "HgN/A
11:50 PM
Mon, Oct 12
46 °FPassing clouds.14 mph66%30.24 "HgN/A
11:20 PM45 °FPassing clouds.13 mph71%30.24 "HgN/A
10:50 PM45 °FPassing clouds.15 mph66%30.24 "HgN/A
10:20 PM45 °FPassing clouds.14 mph71%30.24 "HgN/A
9:50 PM46 °FPassing clouds.16 mph66%30.24 "HgN/A
9:20 PM46 °FPassing clouds.14 mph66%30.24 "HgN/A
Weather by CustomWeather, © 2015

See weather overviewHow to use our weather pages